Twentynine Palms, CA

5:51 AM PDT on May 24, 2017 (GMT -0700)
Twentynine Palms Expeditionary Air Field

Weather History for KNXP - March, 2013

Change the Weather History Date:

Thursday, March 21, 2013

  Actual Average Record
Temperature  
Mean Temperature 70 °F -  
Max Temperature 81 °F 73 °F 95 °F (1997)
Min Temperature 59 °F 51 °F 42 °F (2011)
Cooling Degree Days 4    
Growing Degree Days 20 (Base 50)    
Moisture  
Dew Point 31 °F    
Average Humidity 28    
Maximum Humidity 42    
Minimum Humidity 12    
Precipitation  
Precipitation 0.00 in - - ()
Sea Level Pressure  
Sea Level Pressure 29.81 in    
Wind  
Wind Speed 14 mph (NW)    
Max Wind Speed 25 mph    
Max Gust Speed 37 mph    
Visibility 10 miles    
Events      
Averages and records for this station are not official NWS values.
T = Trace of Precipitation, MM = Missing Value Source: NWS Daily Summary

Daily Weather History Graph

Daily Weather History Graph

Search for Another Location

Airport or City:

Trip Planner

Search our weather history database for the weather conditions in past years. The results will help you decide how hot, cold, wet, or windy it might be!

Date:

Astronomy

Mar. 21, 2013 Rise Set
Actual Time 6:46 AM PDT 6:57 PM PDT
Civil Twilight 6:21 AM PDT 7:22 PM PDT
Nautical Twilight 5:52 AM PDT 7:51 PM PDT
Astronomical Twilight 5:22 AM PDT 8:21 PM PDT
Moon 1:43 PM PDT (3/21) 2:58 AM PDT (3/21)
Length of Visible Light 13h 00m
Length of Day
12h 10m
Waxing Gibbous, 69% of the Moon is Illuminated
Mar 21
Waxing Gibbous
Mar 27
Full
Apr 2
Last Quarter
Apr 10
New
Apr 18
First Quarter

Hourly Weather History & Observations

Time (PDT) Temp. Dew Point Humidity Pressure Visibility Wind Dir Wind Speed Gust Speed Precip Events Conditions
12:08 AM 66.2 °F 35.6 °F 32% 29.94 in 6.0 mi NW 11.5 mph - N/A   Haze
12:56 AM 64.9 °F 36.0 °F 34% 29.85 in 10.0 mi WNW 18.4 mph 27.6 mph N/A   Clear
1:34 AM 64.4 °F 35.6 °F 34% 29.95 in 10.0 mi NNE 16.1 mph - N/A   Clear
1:56 AM 64.9 °F 36.0 °F 34% 29.86 in 10.0 mi NNW 13.8 mph 24.2 mph N/A   Clear
2:56 AM 63.0 °F 36.0 °F 37% 29.82 in 10.0 mi WNW 25.3 mph 36.8 mph N/A   Clear
3:49 AM 62.6 °F 37.4 °F 39% 29.90 in 10.0 mi NW 16.1 mph - N/A   Clear
3:56 AM 62.1 °F 37.0 °F 39% 29.81 in 10.0 mi WNW 12.7 mph 23.0 mph N/A   Clear
4:56 AM 61.0 °F 36.0 °F 39% 29.84 in 10.0 mi NW 12.7 mph 23.0 mph N/A   Clear
5:56 AM 60.1 °F 36.0 °F 41% 29.85 in 10.0 mi NNW 20.7 mph 25.3 mph N/A   Clear
6:56 AM 59.0 °F 36.0 °F 42% 29.84 in 10.0 mi NNW 11.5 mph 24.2 mph N/A   Clear
7:56 AM 60.1 °F 37.0 °F 42% 29.88 in 10.0 mi NNW 8.1 mph - N/A   Clear
8:56 AM 64.0 °F 37.0 °F 37% 29.88 in 10.0 mi NW 18.4 mph 26.5 mph N/A   Partly Cloudy
9:56 AM 66.9 °F 36.0 °F 32% 29.88 in 9.0 mi NW 20.7 mph 26.5 mph N/A   Partly Cloudy
10:56 AM 71.1 °F 32.0 °F 24% 29.87 in 9.0 mi NW 15.0 mph - N/A   Partly Cloudy
11:56 AM 73.0 °F 33.1 °F 23% 29.86 in 10.0 mi WNW 9.2 mph 19.6 mph N/A   Scattered Clouds
12:56 PM 75.9 °F 32.0 °F 20% 29.83 in 10.0 mi NW 6.9 mph - N/A   Partly Cloudy
1:56 PM 77.0 °F 30.0 °F 18% 29.78 in 10.0 mi Variable 3.5 mph - N/A   Partly Cloudy
2:56 PM 79.0 °F 28.0 °F 15% 29.75 in 10.0 mi Calm Calm - N/A   Partly Cloudy
3:56 PM 80.1 °F 26.1 °F 14% 29.73 in 10.0 mi Variable 3.5 mph - N/A   Partly Cloudy
4:56 PM 80.1 °F 21.9 °F 12% 29.70 in 10.0 mi Calm Calm - N/A   Partly Cloudy
5:56 PM 79.0 °F 23.0 °F 13% 29.70 in 10.0 mi West 4.6 mph - N/A   Clear
6:56 PM 75.9 °F 19.9 °F 12% 29.70 in 10.0 mi West 15.0 mph - N/A   Clear
7:56 PM 72.0 °F 18.0 °F 13% 29.71 in 10.0 mi West 11.5 mph - N/A   Clear
8:56 PM 69.1 °F 26.1 °F 20% 29.73 in 10.0 mi WNW 18.4 mph - N/A   Clear
9:56 PM 64.9 °F 28.0 °F 25% 29.75 in 10.0 mi NW 13.8 mph 24.2 mph N/A   Clear
10:56 PM 61.0 °F 30.9 °F 32% 29.75 in 9.0 mi NW 23.0 mph 36.8 mph N/A   Clear
11:56 PM 59.0 °F 28.9 °F 32% 29.75 in 10.0 mi NNW 15.0 mph 25.3 mph N/A   Clear